Flag for Canada Weather past 2 weeks in Colchester County, Nova Scotia, Canada

Now
32 °F

Overcast.


Feels Like: 23 °F
Forecast: 4 / 27 °F
Wind: 12 mph from Southwest

Location: Halifax International Airport

Current Time: Mar 5, 2015 at 12:41:41 AM

Latest Report: Mar 5, 2015 at 12:00 AM


Visibility: 15 mi

Pressure: 29.70 "Hg

Humidity: 80%

Dew point: 27 °F

Location of Colchester CountyLocation

Historic Weather in Colchester County — Graph

°F

Colchester County temperature yesterday

Maximum temperature yesterday: 39 °F (at 3:00 PM)
Minimum temperature yesterday: 10 °F (at 12:00 AM)
Average temperature yesterday: 30 °F

Past Weeks' High & Low Weather Summary

 TemperatureHumidityPressure
High41 °F (Feb 22, 8:00 AM)100% (Feb 19, 12:00 AM)30.64 "Hg (Feb 19, 12:00 AM)
Low-8 °F (Feb 24, 6:00 AM)36% (Feb 28, 4:00 PM)29.36 "Hg (Feb 19, 10:00 PM)
Average20 °F76%29.99 "Hg
* Reported Feb 17 11:00 PM — Mar 4 11:00 PM, Colchester County, Weather by CustomWeather, © 2015

Note: Actual official high and low records may vary slightly from our data, if they occured in-between our weather recording intervals... More about our weather records

Advertising

Colchester County weather history for previous 24 hours

 ConditionsComfort  
Time TempWeatherWind HumidityBarometerVisibility
11:00 PM
Wed, Mar 4
32 °FPassing clouds.15 mph80%29.70 "Hg15 mi
10:00 PM32 °FOvercast.14 mph80%29.69 "Hg15 mi
9:00 PM34 °FOvercast.14 mph70%29.68 "Hg15 mi
8:00 PM34 °FPassing clouds.12 mph70%29.68 "Hg15 mi
6:00 PM36 °FScattered clouds.10 mph65%29.62 "Hg15 mi
5:00 PM37 °FPassing clouds.16 mph60%29.60 "Hg15 mi
4:00 PM39 °FPartly sunny.23 mph56%29.60 "Hg15 mi
3:00 PM39 °FScattered clouds.23 mph61%29.56 "Hg15 mi
2:00 PM37 °FBroken clouds.21 mph70%29.52 "Hg15 mi
1:00 PM36 °FBroken clouds.20 mph81%29.52 "Hg15 mi
12:00 PM37 °FMostly cloudy.22 mph81%29.52 "Hg15 mi
11:53 AM37 °FSprinkles. Mostly cloudy.16 mph87%29.51 "Hg10 mi
11:00 AM37 °FMostly cloudy.22 mph93%29.49 "Hg10 mi
10:52 AM37 °FLow clouds.23 mph93%29.49 "Hg10 mi
10:00 AM36 °FFog.13 mph100%29.49 "Hg1 mi
9:00 AM32 °FDrizzle. Ice fog.13 mph100%29.54 "Hg1 mi
8:49 AM32 °FDrizzle. Ice fog.10 mph100%29.56 "Hg1 mi
8:00 AM30 °FLight mixture of precip. Ice fog.15 mph100%29.61 "Hg1 mi
7:00 AM28 °FLight snow. Ice fog.17 mph93%29.70 "Hg1 mi
6:00 AM25 °FLight snow. Ice fog.16 mph93%29.75 "Hg1 mi
5:00 AM23 °FLight snow. Low clouds.16 mph93%29.83 "Hg1 mi
4:00 AM16 °FLight snow. Ice fog.13 mph93%29.90 "Hg1 mi
3:02 AM16 °FLight snow. Overcast.8 mph73%30.02 "Hg10 mi
2:00 AM14 °FOvercast.9 mph67%30.06 "Hg15 mi
1:00 AM10 °FOvercast.8 mph72%30.08 "Hg15 mi
12:00 AM10 °FPassing clouds.8 mph72%30.12 "Hg15 mi
Weather by CustomWeather, © 2015

See weather overviewHow to use our weather pages